Weather History for Araxos, Greece

Change the Weather History Date:

Monday, October 1, 2012

  Actual Average Record
Temperature  
Mean Temperature 74 °F -  
Max Temperature 87 °F 73 °F 87 °F (2012)
Min Temperature 60 °F 56 °F 55 °F (1997)
Cooling Degree Days 8    
Growing Degree Days 24 (Base 50)    
Moisture  
Dew Point 62 °F    
Average Humidity 64    
Maximum Humidity 94    
Minimum Humidity 31    
Precipitation  
Precipitation 0.00 in - - ()
Sea Level Pressure  
Sea Level Pressure 30.02 in    
Wind  
Wind Speed 2 mph ()    
Max Wind Speed 8 mph    
Max Gust Speed -    
Averages and records for this station are not official NWS values.
T = Trace of Precipitation, MM = Missing Value Source: Averaged Metar Reports

Daily Weather History Graph

Daily Weather History Graph

Search for Another Location

Airport:

Trip Planner

Search our weather history database for the weather conditions in past years. The results will help you decide how hot, cold, wet, or windy it might be!

Date:

Astronomy

Oct. 01, 2012 Rise Set
Actual Time 7:30 AM EEST 7:16 PM EEST
Civil Twilight 7:03 AM EEST 7:43 PM EEST
Nautical Twilight 6:33 AM EEST 8:13 PM EEST
Astronomical Twilight 6:02 AM EEST 8:44 PM EEST
Moon 7:45 PM EEST (10/1) 8:39 AM EEST (10/1)
Length of Visible Light 12h 39m
Length of Day
11h 46m
Full, 99% of the Moon is Illuminated
Oct 1
Full
Oct 8
Last Quarter
Oct 15
New
Oct 22
First Quarter
Oct 29
Full

Hourly Weather History & Observations

Time (EEST) Temp. Heat Index Dew Point Humidity Pressure Visibility Wind Dir Wind Speed Gust Speed Precip Events Conditions
12:50 AM 68.0 °F - 60.8 °F 78% 30.01 in - Calm Calm - N/A   Clear
2:50 AM 66.2 °F - 60.8 °F 83% 30.01 in - Calm Calm - N/A   Clear
4:50 AM 62.6 °F - 57.2 °F 82% 30.01 in - Calm Calm - N/A   Clear
5:50 AM 62.6 °F - 59.0 °F 88% 30.01 in - Calm Calm - N/A   Clear
6:20 AM 62.6 °F - 59.0 °F 88% 30.01 in - Calm Calm - N/A   Clear
6:50 AM 60.8 °F - 59.0 °F 94% 30.01 in - Calm Calm - N/A   Clear
7:20 AM 62.6 °F - 59.0 °F 88% 30.01 in - Calm Calm - N/A   Clear
7:50 AM 66.2 °F - 60.8 °F 83% 30.01 in - Calm Calm - N/A   Clear
8:20 AM 66.2 °F - 59.0 °F 78% 30.01 in - Calm Calm - N/A   Clear
8:50 AM 71.6 °F - 60.8 °F 69% 30.01 in - Calm Calm - N/A   Clear
9:20 AM 77.0 °F - 59.0 °F 54% 30.04 in - Calm Calm - N/A   Clear
9:50 AM 78.8 °F - 55.4 °F 44% 30.04 in - North 8.1 mph - N/A   Clear
10:20 AM 80.6 °F 80.8 °F 57.2 °F 45% 30.04 in - NE 4.6 mph - N/A   Clear
10:50 AM 80.6 °F 81.5 °F 60.8 °F 51% 30.04 in - Variable 3.5 mph - N/A   Clear
11:20 AM 84.2 °F 85.6 °F 64.4 °F 51% 30.04 in - Calm Calm - N/A   Clear
11:50 AM 84.2 °F 84.4 °F 60.8 °F 45% 30.04 in - Variable 2.3 mph - N/A   Clear
12:20 PM 86.0 °F 84.9 °F 57.2 °F 37% 30.04 in - Variable 2.3 mph - N/A   Clear
12:50 PM 87.8 °F 85.7 °F 53.6 °F 31% 30.01 in - Variable 3.5 mph - N/A   Clear
1:20 PM 87.8 °F 85.7 °F 53.6 °F 31% 30.01 in - Variable 3.5 mph - N/A   Clear
1:50 PM 87.8 °F 86.5 °F 57.2 °F 35% 30.01 in - Variable 3.5 mph - N/A   Clear
2:20 PM 86.0 °F 88.2 °F 66.2 °F 51% 30.01 in - Variable 3.5 mph - N/A   Clear
2:50 PM 86.0 °F 88.2 °F 66.2 °F 51% 30.01 in - West 4.6 mph - N/A   Clear
3:20 PM 87.8 °F 91.4 °F 68.0 °F 52% 30.01 in - Variable 3.5 mph - N/A   Clear
3:50 PM 87.8 °F 87.6 °F 60.8 °F 40% 30.01 in - WSW 6.9 mph - N/A   Clear
4:20 PM 87.8 °F 88.5 °F 62.6 °F 43% 30.01 in - WSW 6.9 mph - N/A   Clear
4:50 PM 87.8 °F 87.6 °F 60.8 °F 40% 30.01 in - West 5.8 mph - N/A   Clear
5:20 PM 86.0 °F 88.2 °F 66.2 °F 51% 30.01 in - WSW 6.9 mph - N/A   Clear
5:50 PM 84.2 °F 87.3 °F 68.0 °F 58% 30.01 in - West 5.8 mph - N/A   Clear
6:20 PM 82.4 °F 85.4 °F 68.0 °F 62% 30.01 in - West 4.6 mph - N/A   Clear
6:50 PM 80.6 °F 83.9 °F 69.8 °F 70% 30.01 in - West 4.6 mph - N/A   Clear
7:20 PM 77.0 °F - 71.6 °F 83% 30.01 in - Variable 2.3 mph - N/A   Clear
7:50 PM 75.2 °F - 69.8 °F 83% 30.01 in - Variable 2.3 mph - N/A   Clear
8:20 PM 73.4 °F - 69.8 °F 88% 30.01 in - Variable 2.3 mph - N/A   Clear
8:50 PM 71.6 °F - 68.0 °F 88% 30.01 in - Calm Calm - N/A   Clear
9:50 PM 68.0 °F - 64.4 °F 88% 30.01 in - Calm Calm - N/A   Clear
10:50 PM 68.0 °F - 62.6 °F 83% 30.01 in - Calm Calm - N/A   Clear
11:50 PM 68.0 °F - 60.8 °F 78% 30.04 in - Variable 2.3 mph - N/A   Clear